Home > Weather > Osaka > Past weeks

Flag for Japan Past Weather in Osaka, Japan — Yesterday and Last 2 Weeks

Now
77 °F

Passing clouds.


Feels Like: 78 °F
Forecast: 74 / 93 °F
Wind: 2 mph from Northwest

Location: Osaka International Airport

Current Time: Jul 31, 2016 at 5:41:35 AM

Latest Report: Jul 31, 2016 at 5:00 AM


Visibility: N/A

Pressure: 29.89 "Hg

Humidity: 83%

Dew Point: 72 °F

Location of OsakaLocation

Past Weather in Osaka — Graph

°F

Osaka Temperature Yesterday

Maximum temperature yesterday: 95 °F (at 2:00 PM)
Minimum temperature yesterday: 77 °F (at 5:00 AM)
Average temperature yesterday: 87 °F

High & Low Weather Summary for the Past Weeks

 TemperatureHumidityPressure
High95 °F (Jul 30, 2:00 PM)100% (Jul 26, 8:00 AM)29.95 "Hg (Jul 26, 8:00 AM)
Low72 °F (Jul 16, 5:00 AM)32% (Jul 30, 3:00 PM)29.62 "Hg (Jul 15, 8:00 PM)
Average83 °F60%29.82 "Hg
* Reported Jul 15 8:00 PM — Jul 30 8:00 PM, Osaka, Weather by CustomWeather, © 2016

Note: Actual official high and low records may vary slightly from our data, if they occured in-between our weather recording intervals... More about our weather records

Advertising

Osaka Weather History for the Previous 24 Hours

Scroll right to see more
 ConditionsComfort  
Time TempWeatherWind HumidityBarometerVisibility
8:00 PM
Sat, Jul 30
82 °FPassing clouds.6 mph66%29.86 "HgN/A
7:00 PM82 °FScattered clouds.8 mph62%29.86 "HgN/A
6:00 PM84 °FScattered clouds.8 mph55%29.83 "HgN/A
5:00 PM90 °FPartly sunny.9 mph49%29.83 "HgN/A
4:00 PM93 °FPartly sunny.6 mph44%29.83 "HgN/A
3:00 PM93 °FPartly sunny.5 mph32%29.83 "HgN/A
2:00 PM95 °FPartly sunny.3 mph34%29.86 "HgN/A
1:00 PM93 °FPartly sunny.5 mph39%29.86 "HgN/A
12:00 PM91 °FPartly sunny.5 mph44%29.89 "HgN/A
11:00 AM90 °FPartly sunny.2 mph49%29.89 "HgN/A
10:00 AM88 °FPartly sunny.3 mph52%29.92 "HgN/A
9:00 AM84 °FPartly sunny.2 mph58%29.92 "HgN/A
8:00 AM82 °FPartly sunny.7 mph62%29.92 "HgN/A
7:00 AM81 °FScattered clouds.6 mph70%29.92 "HgN/A
6:00 AM79 °FPartly sunny.2 mph74%29.92 "HgN/A
5:00 AM77 °FPassing clouds.5 mph79%29.89 "HgN/A
Weather by CustomWeather, © 2016

See weather overviewHow to use our weather pages